[[{"header":{"parameterUnit":"m.s-1","parameterCategory":1,"la1":30.2991,"la2":30.254,"lo1":-89.0895,"lo2":-89.0444,"dy":0.0017,"dx":0.0017,"nx":28,"ny":28,"refTime":"2024-07-25T03:00:00:Z","depth":0,"parameterNumber":2,"parameterNumberName":"U-component_of_WINDS"},"data":[0,0,0,0,0,0,0,0,0,0,0,0,0,0,0,0,0,0,0,0,0,0,0,0,0,0,0,0,0,0,0,0,0,0,0,0,0,0,0,0,0,0,0,0,0,0,0,0,0,0,0,0,0,0,0,0,0,0,-2.6759,-2.6759,0,-2.6789,-2.6789,-2.6789,-2.6688,-2.6685,-2.6682,-2.6679,-2.671,-2.6714,-2.6718,0,0,0,0,0,0,0,0,0,0,0,0,0,-2.6614,-2.6617,-2.6759,-2.6759,-2.676,-2.6789,-2.6789,-2.679,-2.6689,-2.6685,-2.6681,-2.6678,-2.6709,-2.6714,-2.6718,0,0,0,0,0,0,0,0,0,0,0,0,0,-2.6664,-2.6618,-2.6759,-2.6713,-2.6709,-2.6789,-2.6789,-2.679,-2.669,-2.6685,-2.668,-2.6676,-2.6708,-2.6713,-2.6719,-2.6844,0,0,-2.6735,-2.6738,0,0,0,0,0,0,0,0,-2.6661,-2.6669,-2.6719,-2.6716,-2.6712,-2.673,-2.6749,-2.6808,-2.6691,-2.6697,-2.6679,-2.6674,-2.6721,-2.6725,-2.674,-2.6846,-2.6847,-2.6736,-2.6739,-2.6742,-2.6743,0,0,0,0,0,0,0,-2.6658,-2.6667,-2.6771,-2.672,-2.6716,-2.669,-2.6693,-2.676,-2.6734,-2.6696,-2.6689,-2.6694,-2.6718,-2.6735,-2.674,-2.6847,-2.6736,-2.6741,-2.6744,-2.6746,-2.7055,-2.7059,0,0,0,0,0,0,-2.666,-2.6665,-2.677,-2.6772,-2.6675,-2.6697,-2.6699,-2.6729,-2.6733,-2.6729,-2.6698,-2.6689,-2.6728,-2.6734,-2.6741,-2.6887,-2.6742,-2.6747,-2.675,-2.705,-2.7056,-2.7061,0,0,0,0,0,0,-2.6658,-2.6671,-2.6769,-2.6716,-2.6727,-2.6704,-2.6739,-2.6732,-2.6749,-2.6734,-2.6729,-2.672,-2.6725,-2.6733,-2.6819,-2.6887,-2.6749,-2.6754,-2.7044,-2.7052,-2.7058,-2.7181,0,0,0,0,0,0,-2.6654,-2.667,-2.6718,-2.6718,-2.673,-2.6846,-2.6743,-2.6736,-2.6759,-2.6748,-2.6754,-2.6751,-2.6722,-2.6811,-2.6824,-2.6892,-2.6758,-2.7038,-2.7047,-2.7056,-2.717,-2.7191,-2.7209,0,0,0,0,0,-2.6649,-2.6752,-2.6721,-2.6734,-2.6789,-2.685,-2.6857,-2.6822,-2.6765,-2.6812,-2.6802,-2.6751,-2.6877,-2.6821,-2.6835,-2.6905,-2.7033,-2.7045,-2.7055,-2.7162,-2.7187,-2.7209,0,0,0,0,0,0,-2.6761,-2.6751,-2.6717,-2.6823,-2.6838,-2.6833,-2.6892,-2.685,-2.6882,-2.687,-2.6825,-2.6827,-2.692,-2.6921,-2.6858,-2.7026,-2.6945,-2.696,-2.7022,-2.7046,-2.7065,-2.7062,-2.6763,0,0,0,0,0,-2.6798,-2.6848,-2.6837,-2.6931,-2.6941,-2.6916,-2.6941,-2.6912,-2.6926,-2.6932,-2.6928,-2.6944,-2.6987,-2.7016,-2.7055,-2.717,-2.7169,-2.7225,-2.7245,-2.726,-2.7273,-2.7332,-2.7356,-2.7097,-2.7097,-2.7097,0,0,-2.6875,-2.6876,-2.691,-2.6954,-2.6962,-2.7015,-2.6922,-2.6982,-2.702,-2.6941,-2.7021,-2.7019,-2.7033,-2.7134,-2.7178,-2.7137,-2.7345,-2.7274,-2.7287,-2.7291,-2.7346,-2.7371,-2.7392,-2.7105,-2.7103,-2.7102,0,0,-2.7041,-2.7048,-2.7126,-2.7137,-2.715,-2.7132,-2.7151,-2.7153,-2.7148,-2.7227,-2.7169,-2.7214,-2.7289,-2.7301,-2.7318,-2.7488,-2.7441,-2.7502,-2.7602,-2.766,-2.7681,-2.7699,-2.7758,-2.778,-2.7514,-2.7515,-2.7515,0,-2.7135,-2.7213,-2.7172,-2.7236,-2.7256,-2.7187,-2.7265,-2.7277,-2.7303,-2.7319,-2.7273,-2.7365,-2.737,-2.7471,-2.7513,-2.7529,-2.7548,-2.75,-2.7681,-2.7699,-2.7715,-2.7771,-2.7793,-2.7522,-2.7521,-2.752,-2.752,0,-2.7326,-2.7381,-2.7443,-2.7469,-2.7496,-2.7567,-2.7537,-2.757,-2.7538,-2.7525,-2.7606,-2.7609,-2.7647,-2.7669,-2.7639,-2.7766,-2.774,-2.7689,-2.7607,-2.7747,-2.7799,-2.782,-2.7532,-2.753,-2.7528,-2.7526,0,0,-2.7565,-2.7567,-2.759,-2.76,-2.761,-2.7651,-2.7718,-2.7754,-2.7783,-2.7803,-2.7857,-2.7922,-2.7874,-2.7893,-2.7864,-2.7915,-2.8048,-2.7857,-2.7856,-2.7891,-2.8185,-2.8223,-2.8249,-2.8017,-2.8021,-2.8024,-2.8184,0,-2.7728,-2.7843,-2.7808,-2.7923,-2.7972,-2.7906,-2.7965,-2.7977,-2.7966,-2.8006,-2.7994,-2.804,-2.7974,-2.7984,-2.8032,-2.8021,-2.8106,-2.8009,-2.8066,-2.8069,-2.8064,-2.8276,-2.8317,-2.8467,-2.8204,-2.8207,-2.821,0,-2.7933,-2.796,-2.8081,-2.8081,-2.81,-2.8153,-2.8182,-2.8222,-2.8233,-2.8222,-2.8242,-2.8202,-2.8267,-2.8186,-2.8275,-2.821,-2.8231,-2.8229,-2.8234,-2.8237,-2.8147,-2.8284,-2.8515,-2.8537,-2.8241,-2.8239,-2.8237,0,-2.8093,-2.816,-2.824,-2.8251,-2.8254,-2.8292,-2.8295,-2.8302,-2.8326,-2.8351,-2.8366,-2.84,-2.8418,-2.8444,-2.8414,-2.8358,-2.8507,-2.8424,-2.8499,-2.8499,-2.8532,-2.8531,-2.8769,-2.8548,-2.8548,-2.8548,-2.8547,0,-2.8278,-2.8354,-2.8312,-2.8361,-2.8444,-2.8403,-2.8486,-2.8481,-2.8488,-2.8535,-2.848,-2.8525,-2.8483,-2.8524,-2.8501,-2.8577,-2.8586,-2.8578,-2.857,-2.8582,-2.8583,-2.8595,-2.8583,-2.8553,-2.8552,-2.8551,-2.855,0,-2.8471,-2.8446,-2.8529,-2.8523,-2.8524,-2.8585,-2.858,-2.8625,-2.861,-2.867,-2.8682,-2.8658,-2.8704,-2.8676,-2.8723,-2.8707,-2.8806,-2.8785,-2.8802,-2.8795,-2.8871,-2.8864,-2.9125,-2.9156,-2.8917,-2.8919,-2.8921,0,-2.859,-2.8647,-2.8647,-2.8674,-2.868,-2.8725,-2.8748,-2.871,-2.8736,-2.8753,-2.8796,-2.8836,-2.8867,-2.8942,-2.8929,-2.8964,-2.8942,-2.9031,-2.8947,-2.8956,-2.8942,-2.8938,-2.8943,-2.9048,-2.9051,-2.9053,-2.9055,0,-2.8803,-2.8788,-2.8823,-2.8855,-2.8884,-2.8907,-2.8925,-2.8951,-2.8912,-2.8945,-2.899,-2.9013,-2.906,-2.91,-2.9129,-2.9131,-2.9087,-2.9081,-2.91,-2.9112,-2.9119,-2.9115,-2.8846,-2.9075,-2.9073,-2.9072,-2.9071,-2.907,-2.8962,-2.9008,-2.9016,-2.9057,-2.9066,-2.9084,-2.9126,-2.9116,-2.9153,-2.9187,-2.9162,-2.9216,-2.9225,-2.9259,-2.9267,-2.9307,-2.9271,-2.9299,-2.9306,-2.9313,-2.9323,-2.9114,-2.9313,-2.9312,-2.9312,-2.9311,-2.9311,0,-2.9171,-2.9172,-2.921,-2.9237,-2.9269,-2.9224,-2.9242,-2.9272,-2.9319,-2.9331,-2.9362,-2.9413,-2.9452,-2.9442,-2.9476,-2.9511,-2.9491,-2.9521,-2.9517,-2.9518,-2.9354,-2.9333,-2.9536,-2.9536,-2.9536,-2.9536,-2.9536,-2.9536,-2.9284,-2.936,-2.9345,-2.9425,-2.9425,-2.9476,-2.949,-2.9506,-2.9515,-2.9575,-2.9606,-2.9599,-2.9602,-2.9636,-2.9669,-2.9665,-2.968,-2.9717,-2.9706,-2.9552,-2.953,-2.9509,-2.9489,-2.9721,-2.9721,-2.9866,-2.9867,-2.9868]},{"header":{"parameterUnit":"m.s-1","parameterCategory":1,"la1":30.2991,"la2":30.254,"lo1":-89.0895,"lo2":-89.0444,"dy":0.0017,"dx":0.0017,"nx":28,"ny":28,"refTime":"2024-07-25T03:00:00:Z","depth":0,"parameterNumber":3,"parameterNumberName":"V-component_of_WINDS"},"data":[0,0,0,0,0,0,0,0,0,0,0,0,0,0,0,0,0,0,0,0,0,0,0,0,0,0,0,0,0,0,0,0,0,0,0,0,0,0,0,0,0,0,0,0,0,0,0,0,0,0,0,0,0,0,0,0,0,0,-1.692,-1.6921,0,-1.695,-1.695,-1.6951,-1.6965,-1.6965,-1.6965,-1.6965,-1.6994,-1.6995,-1.6995,0,0,0,0,0,0,0,0,0,0,0,0,0,-1.6874,-1.6874,-1.692,-1.6921,-1.6921,-1.695,-1.695,-1.6951,-1.6965,-1.6965,-1.6965,-1.6965,-1.6994,-1.6995,-1.6996,0,0,0,0,0,0,0,0,0,0,0,0,0,-1.6898,-1.6875,-1.692,-1.6931,-1.6933,-1.695,-1.695,-1.6951,-1.6965,-1.6965,-1.6965,-1.6965,-1.6993,-1.6994,-1.6996,-1.7003,0,0,-1.6999,-1.7,0,0,0,0,0,0,0,0,-1.6896,-1.6899,-1.6929,-1.6931,-1.6932,-1.6954,-1.6945,-1.6968,-1.6965,-1.6952,-1.6965,-1.6965,-1.698,-1.6983,-1.6988,-1.7005,-1.7006,-1.6999,-1.7,-1.7001,-1.7001,0,0,0,0,0,0,0,-1.6894,-1.6898,-1.6932,-1.693,-1.6932,-1.6934,-1.6938,-1.6949,-1.6966,-1.6954,-1.6955,-1.6958,-1.6981,-1.6987,-1.6989,-1.7007,-1.6999,-1.7,-1.7001,-1.7002,-1.703,-1.703,0,0,0,0,0,0,-1.6891,-1.6897,-1.6931,-1.6933,-1.6914,-1.6935,-1.6939,-1.6947,-1.6966,-1.6969,-1.6958,-1.6959,-1.6985,-1.6988,-1.699,-1.7,-1.7001,-1.7002,-1.7002,-1.703,-1.703,-1.703,0,0,0,0,0,0,-1.689,-1.6894,-1.693,-1.6915,-1.692,-1.6936,-1.6945,-1.6947,-1.6953,-1.697,-1.6972,-1.6961,-1.6985,-1.6988,-1.7,-1.7001,-1.7002,-1.7003,-1.7029,-1.703,-1.703,-1.702,0,0,0,0,0,0,-1.6889,-1.6894,-1.6897,-1.6915,-1.6921,-1.694,-1.6945,-1.6948,-1.6955,-1.6956,-1.6973,-1.6976,-1.6985,-1.6998,-1.7001,-1.7003,-1.7004,-1.7029,-1.703,-1.703,-1.702,-1.7019,-1.7019,0,0,0,0,0,-1.6887,-1.6894,-1.6898,-1.6902,-1.6926,-1.694,-1.6943,-1.6954,-1.6956,-1.6959,-1.6969,-1.6975,-1.7,-1.6999,-1.7003,-1.7005,-1.7029,-1.7029,-1.703,-1.702,-1.7019,-1.7019,0,0,0,0,0,0,-1.6876,-1.6896,-1.6901,-1.6913,-1.6925,-1.6942,-1.6947,-1.6953,-1.6964,-1.6964,-1.6977,-1.6981,-1.6991,-1.6999,-1.6997,-1.7012,-1.7015,-1.7016,-1.7007,-1.7006,-1.7006,-1.7004,-1.7005,0,0,0,0,0,-1.6875,-1.6885,-1.6902,-1.6911,-1.6917,-1.6931,-1.6937,-1.6945,-1.6957,-1.6962,-1.6973,-1.6984,-1.6994,-1.7001,-1.7011,-1.7021,-1.7024,-1.7024,-1.7023,-1.7023,-1.7023,-1.7028,-1.7028,-1.703,-1.703,-1.703,0,0,-1.6873,-1.6885,-1.6891,-1.6909,-1.6919,-1.6928,-1.6935,-1.6945,-1.6952,-1.6963,-1.6975,-1.6983,-1.6996,-1.7006,-1.7011,-1.7013,-1.7023,-1.7023,-1.7022,-1.7023,-1.7028,-1.7028,-1.7028,-1.703,-1.703,-1.703,0,0,-1.6874,-1.6884,-1.6893,-1.6902,-1.6917,-1.6926,-1.6928,-1.6944,-1.695,-1.6961,-1.697,-1.6978,-1.6996,-1.7004,-1.7011,-1.7014,-1.702,-1.7017,-1.7014,-1.7018,-1.7018,-1.7018,-1.7018,-1.7018,-1.7017,-1.7017,-1.7017,0,-1.6869,-1.6885,-1.6896,-1.6906,-1.6913,-1.6924,-1.6932,-1.694,-1.6957,-1.6962,-1.6963,-1.6985,-1.6995,-1.7007,-1.7007,-1.7013,-1.7014,-1.7015,-1.7017,-1.7017,-1.7017,-1.7018,-1.7018,-1.7017,-1.7017,-1.7017,-1.7017,0,-1.6878,-1.6888,-1.6893,-1.6909,-1.6917,-1.6926,-1.6938,-1.6945,-1.6951,-1.6959,-1.697,-1.6982,-1.6994,-1.6998,-1.7004,-1.701,-1.7011,-1.7015,-1.7018,-1.7016,-1.7017,-1.7017,-1.7016,-1.7016,-1.7016,-1.7016,0,0,-1.6874,-1.6895,-1.6897,-1.6904,-1.692,-1.6928,-1.6936,-1.6948,-1.6953,-1.6964,-1.6971,-1.6985,-1.6988,-1.6996,-1.7003,-1.7007,-1.7007,-1.701,-1.7011,-1.7009,-1.7014,-1.701,-1.701,-1.7011,-1.7011,-1.7011,-1.7012,0,-1.6877,-1.6893,-1.6903,-1.6915,-1.6924,-1.6933,-1.6941,-1.6951,-1.6958,-1.6967,-1.6975,-1.6985,-1.6989,-1.6993,-1.6997,-1.7006,-1.7008,-1.7007,-1.7017,-1.7017,-1.7013,-1.7011,-1.7008,-1.7008,-1.7013,-1.7013,-1.7013,0,-1.6883,-1.6893,-1.6906,-1.692,-1.6924,-1.693,-1.6942,-1.695,-1.6961,-1.6966,-1.6974,-1.6981,-1.6989,-1.6992,-1.7003,-1.7001,-1.7006,-1.7011,-1.7011,-1.7013,-1.7015,-1.7012,-1.7009,-1.7009,-1.7013,-1.7013,-1.7013,0,-1.6877,-1.6895,-1.6904,-1.691,-1.6927,-1.6931,-1.6938,-1.6949,-1.6955,-1.6965,-1.6969,-1.6979,-1.6985,-1.6992,-1.7002,-1.7003,-1.7012,-1.7015,-1.7016,-1.7015,-1.7017,-1.7017,-1.7015,-1.7021,-1.7021,-1.7021,-1.7021,0,-1.688,-1.6887,-1.6902,-1.6908,-1.6916,-1.6927,-1.6934,-1.6942,-1.6951,-1.6958,-1.6967,-1.6973,-1.6985,-1.6993,-1.7,-1.7007,-1.701,-1.7014,-1.7016,-1.7013,-1.7013,-1.7017,-1.7017,-1.7021,-1.7021,-1.7021,-1.7021,0,-1.6875,-1.6886,-1.6897,-1.6911,-1.6915,-1.692,-1.6932,-1.6938,-1.6946,-1.6954,-1.6957,-1.6969,-1.6978,-1.6988,-1.7,-1.7005,-1.7012,-1.7015,-1.7008,-1.7009,-1.7009,-1.7009,-1.7009,-1.7009,-1.7015,-1.7015,-1.7015,0,-1.6876,-1.6882,-1.6897,-1.6902,-1.6909,-1.6917,-1.6923,-1.6934,-1.694,-1.6952,-1.6956,-1.6966,-1.6974,-1.6988,-1.6997,-1.7006,-1.7009,-1.7008,-1.7011,-1.7007,-1.7008,-1.7008,-1.7008,-1.7008,-1.7008,-1.7008,-1.7008,0,-1.6876,-1.688,-1.6889,-1.69,-1.6907,-1.6915,-1.6924,-1.6928,-1.694,-1.6946,-1.6955,-1.6962,-1.6974,-1.6983,-1.6993,-1.7,-1.7005,-1.7007,-1.7007,-1.7005,-1.7,-1.7002,-1.7006,-1.7007,-1.7007,-1.7007,-1.7007,-1.7007,-1.6874,-1.6879,-1.689,-1.6899,-1.6907,-1.6914,-1.692,-1.6928,-1.6936,-1.6947,-1.6952,-1.6961,-1.6971,-1.6985,-1.6991,-1.6998,-1.7,-1.7001,-1.7001,-1.7001,-1.7,-1.6999,-1.7,-1.7,-1.7,-1.7,-1.7,0,-1.6874,-1.6881,-1.6889,-1.6901,-1.6908,-1.6913,-1.6922,-1.6927,-1.6935,-1.6944,-1.6952,-1.6962,-1.697,-1.698,-1.6989,-1.6992,-1.6995,-1.6994,-1.6994,-1.6995,-1.6998,-1.6997,-1.6992,-1.6992,-1.6992,-1.6992,-1.6992,-1.6992,-1.6874,-1.6883,-1.6888,-1.69,-1.6907,-1.6916,-1.6921,-1.6928,-1.6935,-1.6945,-1.6953,-1.6959,-1.6968,-1.6977,-1.6985,-1.6987,-1.699,-1.6988,-1.6992,-1.6994,-1.6995,-1.6996,-1.6994,-1.6989,-1.6989,-1.6988,-1.6988,-1.6988]}]]